DW9945 Weather Reports


time (UTC)temp
F
wind
direction
speed
knots
gust
knots
rain 1hr
in
rain 24hr
in
rain mn
in
humidity
%
barometer
mb
20260504212007 52 298 0.9 1.7 0.00 0.00 0.00 71 1013.2
20260504211507 52 298 0.0 0.0 0.00 0.00 0.00 72 1013.1
20260504211007 52 298 0.0 1.7 0.00 0.00 0.00 72 1013.1
20260504210507 52 298 1.7 2.6 0.00 0.00 0.00 72 1013.2
20260504210008 53 298 0.0 0.0 0.00 0.00 0.00 70 1013.1
20260504205507 53 298 0.0 0.0 0.00 0.00 0.00 70 1013.0
20260504205007 53 298 0.0 1.7 0.00 0.00 0.00 70 1013.0
20260504204507 53 298 1.7 2.6 0.00 0.00 0.00 70 1013.0
20260504204007 53 298 2.6 2.6 0.00 0.00 0.00 69 1013.0
20260504203507 53 309 2.6 4.3 0.00 0.00 0.00 70 1013.0
20260504203008 53 301 3.5 4.3 0.00 0.00 0.00 69 1012.9
20260504202507 54 307 4.3 4.3 0.00 0.00 0.00 69 1012.9
20260504202006 55 304 3.5 7.0 0.00 0.00 0.00 66 1012.9
20260504201508 55 290 4.3 7.8 0.00 0.00 0.00 66 1012.8
20260504201007 55 284 5.2 8.7 0.00 0.00 0.00 66 1012.8
20260504200507 54 286 5.2 7.8 0.00 0.00 0.00 67 1012.8
20260504200008 54 284 2.6 6.1 0.00 0.00 0.00 68 1012.7
20260504195507 55 283 4.3 6.1 0.00 0.00 0.00 66 1012.6
20260504195007 55 297 2.6 4.3 0.00 0.00 0.00 66 1012.3
20260504194507 55 302 2.6 4.3 0.00 0.00 0.00 67 1012.2
20260504194007 55 297 4.3 7.0 0.00 0.00 0.00 66 1012.2
20260504193507 55 300 3.5 6.1 0.00 0.00 0.00 67 1011.9
20260504193007 55 306 2.6 4.3 0.00 0.00 0.00 66 1011.7
20260504192507 55 307 2.6 4.3 0.00 0.00 0.00 66 1011.7
20260504191007 56 308 4.3 6.1 0.00 0.00 0.00 63 1011.8
20260504190507 57 308 4.3 7.0 0.00 0.00 0.00 61 1011.8
20260504190007 58 306 5.2 10.4 0.00 0.00 0.00 59 1011.7
20260504185507 58 306 7.0 11.3 0.00 0.00 0.00 58 1011.7
20260504185007 58 296 7.0 11.3 0.00 0.00 0.00 57 1011.7
20260504184508 58 294 5.2 10.4 0.00 0.00 0.00 59 1011.7
20260504183507 59 311 6.1 10.4 0.00 0.00 0.00 57 1011.6
20260504183007 60 321 7.8 12.2 0.00 0.00 0.00 55 1011.6
20260504182506 60 317 9.6 12.2 0.00 0.00 0.00 54 1011.5
20260504182006 60 317 9.6 14.8 0.00 0.00 0.00 55 1011.4
20260504181508 61 320 10.4 14.8 0.00 0.00 0.00 53 1011.4
20260504181007 61 321 10.4 13.0 0.00 0.00 0.00 53 1011.3
20260504180507 61 321 9.6 14.8 0.00 0.00 0.00 54 1011.3
20260504180008 62 318 9.6 13.0 0.00 0.00 0.00 52 1011.2
20260504175506 62 312 11.3 15.6 0.00 0.00 0.00 51 1011.1
20260504174507 62 285 9.6 13.9 0.00 0.00 0.00 51 1011.2
20260504174007 62 328 7.8 13.0 0.00 0.00 0.00 51 1011.1
20260504173507 63 306 8.7 12.2 0.00 0.00 0.00 51 1011.2
20260504173007 63 296 7.8 13.0 0.00 0.00 0.00 53 1011.0
20260504172007 63 311 11.3 15.6 0.00 0.00 0.00 50 1011.0
20260504171507 63 314 9.6 13.0 0.00 0.00 0.00 49 1011.0
20260504151007 67 245 7.8 15.6 0.00 0.00 0.00 35 1010.7
20260504150506 67 226 7.8 14.8 0.00 0.00 0.00 35 1010.7
20260504141007 68 236 7.0 12.2 0.00 0.00 0.00 37 1011.0
20260504130507 66 226 6.1 17.4 0.00 0.00 0.00 43 1011.2
20260504100508 60 233 1.7 7.8 0.00 0.00 0.00 63 1012.6
20260504082007 53 163 2.6 5.2 0.00 0.00 0.00 81 1012.7
20260504081508 53 196 2.6 5.2 0.00 0.00 0.00 81 1012.8
20260504080508 53 188 4.3 7.0 0.00 0.00 0.00 81 1012.7
20260504050508 51 142 0.0 1.7 0.00 0.13 0.00 82 1011.4
20260504050008 51 192 0.0 1.7 0.00 0.13 0.00 82 1011.4
20260504045507 51 191 1.7 2.6 0.00 0.13 0.00 83 1011.3
20260504045007 50 194 0.0 0.0 0.00 0.13 0.00 84 1011.3
20260504044007 50 323 0.0 0.0 0.00 0.13 0.00 85 1011.4
20260504043508 49 323 0.0 0.0 0.00 0.13 0.00 85 1011.4
20260504043008 49 323 0.0 0.0 0.00 0.13 0.00 84 1011.4
20260504042507 50 323 0.0 0.0 0.00 0.13 0.00 84 1011.4
20260504042008 50 323 0.0 0.0 0.00 0.13 0.00 83 1011.4
20260504041508 50 323 0.0 0.0 0.00 0.13 0.00 83 1011.4
20260504040508 50 323 0.0 0.0 0.00 0.13 0.00 83 1011.4
20260504040008 50 323 0.0 0.0 0.00 0.13 0.00 82 1011.5
20260504035508 50 323 0.0 0.0 0.00 0.13 0.00 81 1011.5
20260504035007 51 323 0.0 0.0 0.00 0.13 0.00 82 1011.4
20260504034508 50 323 0.0 0.0 0.00 0.13 0.00 82 1011.5
20260504034007 50 323 0.0 0.0 0.00 0.13 0.00 81 1011.5
20260504033507 50 323 0.0 0.0 0.00 0.13 0.00 81 1011.5
20260504033007 50 323 0.0 0.0 0.00 0.13 0.00 81 1011.5
20260504032508 51 323 0.0 0.0 0.00 0.13 0.00 80 1011.6
20260504032008 51 323 0.0 0.0 0.00 0.13 0.00 79 1011.5
20260504031508 51 323 0.0 0.0 0.00 0.13 0.00 79 1011.6
20260504031008 51 323 0.0 0.0 0.00 0.13 0.00 79 1011.6
20260504030508 51 323 0.0 0.0 0.00 0.13 0.00 79 1011.6
20260504025507 52 323 0.0 0.0 0.00 0.13 0.00 77 1011.6
20260504025008 52 323 0.0 0.0 0.00 0.13 0.00 77 1011.6
20260504024507 52 323 0.0 0.0 0.00 0.13 0.00 77 1011.5
20260504024007 52 323 0.0 0.0 0.00 0.13 0.00 77 1011.5
20260504023508 53 323 0.0 0.0 0.00 0.13 0.00 78 1011.5
20260504023008 52 323 0.0 0.0 0.00 0.13 0.00 79 1011.5
20260504022508 52 323 0.0 0.0 0.00 0.13 0.00 79 1011.5
20260504022007 52 323 0.0 0.0 0.00 0.13 0.00 79 1011.5
20260504021008 52 323 0.0 0.0 0.00 0.13 0.00 78 1011.6
20260504020508 53 323 0.0 0.0 0.00 0.13 0.00 77 1011.5
20260504020008 54 323 0.0 0.0 0.00 0.13 0.00 75 1011.5
20260504015507 55 248 0.0 0.0 0.00 0.13 0.00 73 1011.5
20260504015008 56 190 0.0 1.7 0.00 0.13 0.00 72 1011.5
20260504014507 56 189 0.9 2.6 0.00 0.13 0.00 70 1011.5
20260504014007 56 190 0.9 2.6 0.00 0.13 0.00 70 1011.6
20260504013008 56 190 2.6 4.3 0.00 0.13 0.00 69 1011.6
20260504012008 55 286 0.9 2.6 0.00 0.13 0.00 71 1011.6
20260504011508 55 286 0.0 0.9 0.00 0.13 0.00 71 1011.7
20260504011007 55 286 0.0 1.7 0.00 0.13 0.00 70 1011.8
20260504010509 55 286 0.0 0.0 0.00 0.13 0.00 71 1011.7
20260504010008 55 286 0.0 0.0 0.00 0.13 0.00 71 1011.8
20260504005507 55 286 0.0 0.0 0.00 0.13 0.00 71 1011.7
20260504005007 55 286 0.0 0.0 0.00 0.13 0.00 72 1011.7
20260504004508 55 286 0.0 0.0 0.00 0.13 0.00 72 1011.8
20260504004007 55 286 0.0 0.0 0.00 0.13 0.00 73 1011.9
20260504003507 55 286 0.0 0.0 0.00 0.13 0.00 72 1011.9
20260504003008 56 286 0.0 0.0 0.00 0.13 0.00 73 1011.9
20260504002507 56 286 0.0 2.6 0.00 0.13 0.00 72 1012.0
20260504002007 56 279 2.6 5.2 0.00 0.13 0.00 71 1012.1
20260504001508 57 283 4.3 7.0 0.00 0.13 0.00 70 1012.0
20260504001007 58 221 1.7 2.6 0.00 0.13 0.00 66 1012.0
20260504000507 58 210 0.9 2.6 0.00 0.13 0.00 67 1012.1
20260504000009 58 220 0.0 2.6 0.00 0.13 0.00 66 1012.1
20260503235511 58 216 1.7 2.6 0.00 0.13 0.00 66 1012.0
20260503234007 58 209 0.0 2.6 0.00 0.13 0.00 65 1012.1
20260503233508 59 209 0.9 2.6 0.00 0.13 0.00 64 1012.2
20260503232511 59 197 0.9 2.6 0.00 0.13 0.00 63 1012.1
20260503232007 59 188 1.7 4.3 0.00 0.13 0.00 64 1012.3
20260503231007 58 184 1.7 2.6 0.00 0.13 0.00 65 1012.3
20260503230507 58 184 1.7 2.6 0.00 0.13 0.00 64 1012.3
20260503230008 58 223 0.0 0.9 0.00 0.13 0.00 65 1012.2
20260503225008 58 232 0.0 2.6 0.00 0.13 0.00 66 1012.5
20260503224007 58 238 0.9 2.6 0.00 0.13 0.00 67 1012.4
20260503223507 58 223 0.0 1.7 0.00 0.13 0.00 68 1012.4
20260503223007 58 213 0.0 0.9 0.00 0.13 0.00 68 1012.4
20260503222507 58 181 0.0 0.9 0.00 0.13 0.00 67 1012.4
20260503222007 59 172 0.0 0.0 0.00 0.15 0.00 67 1012.3
20260503221508 59 172 0.0 0.0 0.00 0.17 0.00 64 1012.4
20260503215507 59 172 1.7 2.6 0.00 0.17 0.17 63 1012.5
20260503215007 59 195 1.7 2.6 0.00 0.17 0.17 62 1012.5
20260503214508 59 199 2.6 2.6 0.00 0.17 0.17 63 1012.5
20260503214007 58 205 1.7 2.6 0.00 0.17 0.17 65 1012.5
20260503213007 58 274 0.0 0.0 0.00 0.17 0.17 69 1012.4
20260503212507 58 290 0.0 0.0 0.00 0.17 0.17 68 1012.4